Location: Calvatone
(45.1167°N, 10.4333°E)
Time: 11:48:48
(UTC+00:00)

Spot 1 - Pass Details

Date: 28 January 2023
Orbit: 575 x 772 km, 98.8° (Epoch: 25 March)

Event Time Altitude Azimuth Distance (km) Brightness Sun altitude
Exits shadow 18:43:01 67° 236° (SW) 636 4.2 -25.3°
Drops below altitude 10° 18:46:38 10° 202° (SSW) 1,881 6.8 -25.9°
Sets 18:48:45 0° 200° (SSW) 2,772 7.7 -26.3°
